This is the latest recevied weather packets stored in our database for station/object YO8SDE-8. If no packets are shown the sender has not sent any weather packets the latest 10 day(s).
| Time | Temp. | Humidity | Pressure | Rain* | Wind** | Luminosity | Snow |
|---|---|---|---|---|---|---|---|
| 1777638065 | 14.44° C | 31% | 1013.1 hPa | 0 mm | - | - | - |
| 1777637765 | 15.56° C | 31% | 1013.2 hPa | 0 mm | - | - | - |
| 1777637465 | 15.56° C | 29% | 1013.2 hPa | 0 mm | - | - | - |
| 1777637165 | 16.11° C | 28% | 1013.2 hPa | 0 mm | - | - | - |
| 1777636865 | 16.11° C | 29% | 1013.3 hPa | 0 mm | - | - | - |
| 1777636565 | 16.67° C | 28% | 1013.3 hPa | 0 mm | - | - | - |
| 1777636265 | 16.11° C | 28% | 1013.3 hPa | 0 mm | - | - | - |
| 1777635965 | 16.11° C | 28% | 1013.4 hPa | 0 mm | - | - | - |
| 1777635665 | 16.11° C | 27% | 1013.5 hPa | 0 mm | - | - | - |
| 1777635365 | 17.78° C | 27% | 1013.5 hPa | 0 mm | - | - | - |
| 1777635065 | 17.78° C | 26% | 1013.4 hPa | 0 mm | - | - | - |
| 1777634765 | 17.78° C | 25% | 1013.6 hPa | 0 mm | - | - | - |
| 1777634465 | 18.89° C | 26% | 1013.7 hPa | 0 mm | - | - | - |
| 1777634165 | 17.78° C | 26% | 1013.7 hPa | 0 mm | - | - | - |
| 1777633865 | 17.78° C | 27% | 1013.7 hPa | 0 mm | - | - | - |
| 1777633565 | 17.22° C | 27% | 1013.8 hPa | 0 mm | - | - | - |
| 1777633265 | 15.56° C | 29% | 1013.7 hPa | 0 mm | - | - | - |
| 1777632965 | 15° C | 29% | 1013.9 hPa | 0 mm | - | - | - |
| 1777632665 | 15.56° C | 28% | 1014 hPa | 0 mm | - | - | - |
| 1777632365 | 15.56° C | 28% | 1013.9 hPa | 0 mm | - | - | - |
| 1777632065 | 15.56° C | 27% | 1014 hPa | 0 mm | - | - | - |
| 1777631765 | 16.67° C | 25% | 1014 hPa | 0 mm | - | - | - |
| 1777631465 | 18.89° C | 25% | 1014 hPa | 0 mm | - | - | - |
| 1777631165 | 18.33° C | 25% | 1013.9 hPa | 0 mm | - | - | - |
| 1777630865 | 18.33° C | 24% | 1014 hPa | 0 mm | - | - | - |
* Rain latest hour (hover to see other rain measurements)
** Current wind speed in m/s (hover to see current wind gust speed)